This is the latest recevied weather packets stored in our database for station/object KE8AFF-13. If no packets are shown the sender has not sent any weather packets the latest 10 day(s).
| Time | Temp. | Humidity | Pressure | Rain* | Wind** | Luminosity | Snow |
|---|---|---|---|---|---|---|---|
| 1778256289 | 12.22° C | 72% | 1013.7 hPa | 0 mm | - | 89 W/m² | - |
| 1778255984 | 12.22° C | 71% | 1013.6 hPa | 0 mm | - | 109 W/m² | - |
| 1778255682 | 12.22° C | 71% | 1013.5 hPa | 0 mm | - | 124 W/m² | - |
| 1778255378 | 12.22° C | 72% | 1013.3 hPa | 0 mm | - | 124 W/m² | - |
| 1778255076 | 12.22° C | 72% | 1013.5 hPa | 0 mm | - | 112 W/m² | - |
| 1778254772 | 12.22° C | 72% | 1013.5 hPa | 0 mm | - | 95 W/m² | - |
| 1778254470 | 12.22° C | 72% | 1013.2 hPa | 0 mm | - | 83 W/m² | - |
| 1778254166 | 12.22° C | 71% | 1013.5 hPa | 0 mm | - | 91 W/m² | - |
| 1778253863 | 12.22° C | 71% | 1013.7 hPa | 0 mm | - | 117 W/m² | - |
| 1778253559 | 12.22° C | 71% | 1013.3 hPa | 0 mm | - | 112 W/m² | - |
| 1778253256 | 12.22° C | 70% | 1013.6 hPa | 0 mm | - | 78 W/m² | - |
| 1778252952 | 12.22° C | 69% | 1013.5 hPa | 0 mm | - | 72 W/m² | - |
| 1778252648 | 12.22° C | 70% | 1013.5 hPa | 0 mm | - | 81 W/m² | - |
| 1778252345 | 12.22° C | 69% | 1013.6 hPa | 0 mm | - | 134 W/m² | - |
| 1778252041 | 12.22° C | 69% | 1013.5 hPa | 0 mm | - | 152 W/m² | - |
| 1778251738 | 12.78° C | 68% | 1013.3 hPa | 0 mm | - | 154 W/m² | - |
| 1778251436 | 12.78° C | 68% | 1013.1 hPa | 0 mm | - | 134 W/m² | - |
| 1778251134 | 12.78° C | 68% | 1013.2 hPa | 0 mm | - | 123 W/m² | - |
| 1778250831 | 12.78° C | 68% | 1013.5 hPa | 0 mm | - | 122 W/m² | - |
| 1778250527 | 12.78° C | 67% | 1013.5 hPa | 0 mm | - | 142 W/m² | - |
| 1778250224 | 12.78° C | 66% | 1013.3 hPa | 0 mm | - | 157 W/m² | - |
| 1778249920 | 12.78° C | 66% | 1013.3 hPa | 0 mm | - | 147 W/m² | - |
| 1778249617 | 12.78° C | 66% | 1013.6 hPa | 0 mm | - | 158 W/m² | - |
| 1778249315 | 12.78° C | 66% | 1013.3 hPa | 0 mm | - | 163 W/m² | - |
| 1778249011 | 12.78° C | 67% | 1013.3 hPa | 0 mm | - | 136 W/m² | - |
* Rain latest hour (hover to see other rain measurements)
** Current wind speed in m/s (hover to see current wind gust speed)